Regional Weather Roundup
Issued by NWS Kansas City/Pleasant Hill, MO

Home | Current Version | Previous Version | Graphics & Text | Print | Product List | Glossary Off
Versions: 1 2 3 4 5 6 7 8 9 10 11 12 13 14 15 16 17 18 19 20 21 22 23 24 25 26 27 28 29 30 31 32 33 34 35 36 37 38 39 40 41 42 43 44 45 46 47 48 49 50

000
ASUS43 KEAX 021710
RWREAX

WEATHER ROUNDUP FOR EASTERN KANSAS AND NORTHWEST MISSOURI
NATIONAL WEATHER SERVICE KANSAS CITY/PLEASANT HILL MO
1200 PM CDT SUN AUG 02 2015

KSZ040-057-103>105-MOZ028-029-037-043-021800-
...KANSAS CITY METROPOLITAN AREA...

CITY           SKY/WX    TMP DP  RH WIND       PRES   REMARKS
K.C. INTL      MOSUNNY   86  72  62 SW12      29.92S HX  92
K.C. DOWNTOWN  SUNNY     89  68  49 W14       29.91R HX  93
LEES SUMMIT    SUNNY     88  68  51 W13G20    29.93F HX  91
OLATHE - IXD   SUNNY     89  66  46 SW15      29.94S HX  91
OLATHE - OJC   SUNNY     87  67  51 SW9G23    29.93S HX  90
LAWRENCE       SUNNY     88  66  48 W14       29.92S HX  90

$$

MOZ001>008-011>017-020>025-030>033-038>040-044>046-053-054-021800-
...NORTHERN AND CENTRAL MISSOURI...

CITY           SKY/WX    TMP DP  RH WIND       PRES   REMARKS
ST. JOSEPH     MOSUNNY   85  76  74 SW9       29.89F HX  94
MOSBY          SUNNY     88  64  45 SW10G17   29.91S
WARRENSBURG    SUNNY     88  64  45 SW12G20   29.92F
WHITEMAN AFB   SUNNY     88  68  50 SW14      29.92F HX  91
CLINTON        SUNNY     88  70  55 SW12      29.95F HX  92
SEDALIA        SUNNY     88  69  53 SW14      29.95S HX  92
WARSAW         NOT AVBL
CHILLICOTHE      N/A     88  72  58 SW9       29.90S HX  94
KIRKSVILLE     SUNNY     84  71  65 SW7       29.90S

$$

MOZ041-047>049-056>058-063>065-088>090-097-021800-
...EASTERN AND SOUTHERN MISSOURI...

CITY           SKY/WX    TMP DP  RH WIND       PRES   REMARKS
ST. LOUIS INTL MOSUNNY   92  69  47 W10       29.94F HX  97
SPIRIT OF STL  MOSUNNY   89  72  56 SW9       29.92F HX  96
COLUMBIA       SUNNY     86  70  58 SW10      29.94F HX  90
JEFFERSON CITY SUNNY     88  65  46 SW7       29.93F HX  90
ROLLA          SUNNY     87  70  56 SW12      29.96F HX  92
OSAGE BEACH    SUNNY     88  66  48 SW9       29.97F HX  90
SPRINGFIELD    SUNNY     90  63  40 SW8G17    29.99F HX  91
BRANSON        MOSUNNY   90  63  40 SW5       30.02F HX  90
JOPLIN         SUNNY     91  65  41 S14       29.98F HX  93
WEST PLAINS    MOSUNNY   88  65  46 W7        30.02F HX  90

$$

IAZ060-094-KSZ022-034>040-054-083-096-NEZ052-066-093-021800-
...KANSAS...SOUTHEAST NEBRASKA AND IOWA...

CITY           SKY/WX    TMP DP  RH WIND       PRES   REMARKS
TOPEKA         SUNNY     88  67  49 SW10G20   29.91S HX  91
MANHATTAN      SUNNY     89  70  53 SW9       29.90S HX  94
EMPORIA        SUNNY     88  66  48 SW18G24   29.93F HX  90
CHANUTE        SUNNY     89  65  44 S16       29.96F HX  91
WICHITA        MOSUNNY   86  69  56 SW14G21   29.95S HX  90
OMAHA          MOSUNNY   92  72  51 SW14      29.83F HX  99
LINCOLN        SUNNY     90  72  55 SW12      29.87S HX  97
FALLS CITY     SUNNY     86  74  67 SW14      29.88F HX  94
LAMONI         SUNNY     86  75  69 W15G22    29.87S HX  95
DES MOINES     MOSUNNY   89  71  55 W22G28    29.80F HX  95

$$




USA.gov is the U.S. government's official web portal to all federal, state and local government web resources and services.